Change the Weather History Date:

Sunday, November 3, 2013

  Actual Average Record
Temperature  
Mean Temperature 39 °F 46 °F  
Max Temperature 52 °F 56 °F 73 °F (2008)
Min Temperature 26 °F 37 °F 18 °F (2006)
Degree Days  
Heating Degree Days 26 19  
Month to date heating degree days 72 56  
Since 1 July heating degree days 635 567  
Cooling Degree Days 0 0  
Month to date cooling degree days 0 0  
Year to date cooling degree days 745 814  
Moisture  
Dew Point 31 °F    
Average Humidity 80    
Maximum Humidity 100    
Minimum Humidity 46    
Precipitation  
Precipitation 0.00 in 0.10 in 0.50 in (2003)
Month to date precipitation 0.04 0.31  
Year to date precipitation 32.01 32.42  
Sea Level Pressure  
Sea Level Pressure 30.25 in    
Wind  
Wind Speed 5 mph (SE)    
Max Wind Speed 14 mph    
Max Gust Speed 17 mph    
Visibility 8 miles    
Events Fog    
T = Trace of Precipitation, MM = Missing Value Source: NWS Daily Summary

Daily Weather History Graph

Daily Weather History Graph

Search for Another Location

Airport or City:

Trip Planner

Search our weather history database for the weather conditions in past years. The results will help you decide how hot, cold, wet, or windy it might be!

Date:

Astronomy

Nov. 03, 2013 Rise Set
Actual Time 6:28 AM CST 4:44 PM CST
Civil Twilight 5:59 AM CST 5:13 PM CST
Nautical Twilight 5:26 AM CST 5:46 PM CST
Astronomical Twilight 4:53 AM CST 6:18 PM CST
Moon 6:32 AM CST (11/3) 4:58 PM CST (11/3)
Length of Visible Light 11h 14m
Length of Day
10h 16m
New Moon, 0% of the Moon is Illuminated
Nov 3
New Moon
Nov 9
First Quarter
Nov 17
Full
Nov 25
Last Quarter
Dec 2
New

Hourly Weather History & Observations

Time (CST) Temp. Windchill Dew Point Humidity Pressure Visibility Wind Dir Wind Speed Gust Speed Precip Events Conditions
12:52 AM 34.0 °F - 30.9 °F 89% 30.17 in 10.0 mi Calm Calm - N/A   Clear
1:52 AM 30.9 °F - 30.0 °F 96% 30.19 in 10.0 mi Calm Calm - N/A   Clear
1:52 AM 30.9 °F - 30.0 °F 96% 30.21 in 10.0 mi Calm Calm - N/A   Clear
2:52 AM 30.0 °F - 28.0 °F 92% 30.22 in 10.0 mi Calm Calm - N/A   Clear
3:26 AM 28.4 °F - 26.6 °F 93% 30.21 in 3.0 mi Calm Calm - N/A   Scattered Clouds
3:28 AM 30.2 °F - 28.4 °F 93% 30.21 in 1.5 mi Calm Calm - N/A   Scattered Clouds
3:37 AM 30.2 °F - 28.4 °F 93% 30.21 in 8.0 mi Calm Calm - N/A   Clear
3:52 AM 28.9 °F - 27.0 °F 92% 30.23 in 8.0 mi Calm Calm - N/A   Clear
3:56 AM 28.4 °F - 26.6 °F 93% 30.21 in 2.5 mi Calm Calm - N/A   Scattered Clouds
4:00 AM 28.4 °F - 26.6 °F 93% 30.21 in 1.5 mi Calm Calm - N/A   Mostly Cloudy
4:07 AM 28.4 °F - 26.6 °F 93% 30.22 in 0.2 mi Calm Calm - N/A Fog Light Freezing Fog
4:21 AM 28.4 °F - 28.4 °F 100% 30.22 in 8.0 mi Calm Calm - N/A   Clear
4:52 AM 28.0 °F - 27.0 °F 96% 30.26 in 8.0 mi Calm Calm - N/A   Clear
4:59 AM 28.4 °F - 26.6 °F 93% 30.23 in 0.5 mi Calm Calm - N/A Fog Light Freezing Fog
5:32 AM 28.4 °F - 26.6 °F 93% 30.24 in 10.0 mi Calm Calm - N/A   Clear
5:52 AM 27.0 °F 23.0 °F 25.0 °F 92% 30.27 in 10.0 mi North 3.5 mph - N/A   Clear
6:02 AM 26.6 °F - 24.8 °F 93% 30.25 in 10.0 mi Calm Calm - N/A Fog Shallow Fog
6:52 AM 28.0 °F - 27.0 °F 96% 30.29 in 10.0 mi Calm Calm - N/A Fog Patches of Fog
7:52 AM 34.0 °F - 30.9 °F 89% 30.31 in 6.0 mi Calm Calm - N/A   Clear
8:52 AM 42.1 °F 40.2 °F 37.9 °F 85% 30.30 in 10.0 mi East 3.5 mph - N/A   Clear
9:52 AM 46.9 °F - 37.0 °F 68% 30.30 in 10.0 mi ESE 4.6 mph - N/A   Clear
10:52 AM 50.0 °F - 34.0 °F 54% 30.31 in 10.0 mi South 5.8 mph - N/A   Partly Cloudy
11:52 AM 51.1 °F - 33.1 °F 50% 30.29 in 10.0 mi SSE 9.2 mph - N/A   Clear
12:52 PM 51.1 °F - 30.9 °F 46% 30.27 in 10.0 mi South 5.8 mph - N/A   Partly Cloudy
1:52 PM 51.1 °F - 33.1 °F 50% 30.26 in 10.0 mi SSE 9.2 mph - N/A   Clear
2:52 PM 51.1 °F - 33.1 °F 50% 30.25 in 10.0 mi SSE 11.5 mph - N/A   Partly Cloudy
3:52 PM 50.0 °F - 33.1 °F 52% 30.25 in 10.0 mi SSE 8.1 mph - N/A   Clear
4:52 PM 46.0 °F 42.5 °F 33.1 °F 61% 30.25 in 10.0 mi SSE 6.9 mph - N/A   Clear
5:52 PM 44.1 °F 40.8 °F 33.1 °F 65% 30.25 in 10.0 mi ESE 5.8 mph - N/A   Clear
6:52 PM 45.0 °F 40.6 °F 35.1 °F 68% 30.25 in 10.0 mi SE 8.1 mph - N/A   Clear
7:52 PM 44.1 °F 39.0 °F 36.0 °F 73% 30.26 in 10.0 mi SE 9.2 mph - N/A   Clear
8:52 PM 44.1 °F 39.5 °F 36.0 °F 73% 30.26 in 10.0 mi SE 8.1 mph - N/A   Clear
9:52 PM 44.1 °F 39.0 °F 36.0 °F 73% 30.27 in 10.0 mi SE 9.2 mph - N/A   Clear
10:52 PM 43.0 °F 38.8 °F 35.1 °F 74% 30.27 in 10.0 mi SE 6.9 mph - N/A   Clear